Flag for U.S.A. Weather past 2 weeks in Winamac, Indiana, U.S.A.

Now
54 °F

Sunny.


Feels Like: 54 °F
Forecast: 43 / 70 °F
Wind: 3 mph from Southwest

Location: Porter County Municipal Airport

Current Time: Sep 23, 2014 at 10:32:03 AM

Latest Report: Sep 23, 2014 at 9:53 AM


Visibility: 10 mi

Pressure: 30.37 "Hg

Humidity: 80%

Dew point: 48 °F

Location of WinamacLocation

Historic Weather in Winamac — Graph

°F

Winamac temperature yesterday

Maximum temperature yesterday: 63 °F (at 2:53 PM)
Minimum temperature yesterday: 47 °F (at 11:53 PM)
Average temperature yesterday: 54 °F

Past Weeks' High & Low Weather Summary

 TemperatureHumidityPressure
High81 °F (Sep 20, 2:53 PM)100% (Sep 14, 2:53 AM)30.36 "Hg (Sep 14, 2:53 AM)
Low40 °F (Sep 14, 2:53 AM)37% (Sep 19, 4:53 PM)29.59 "Hg (Sep 10, 5:53 PM)
Average58 °F78%30.10 "Hg
* Reported Sep 8 8:53 AM — Sep 23 8:53 AM, Winamac, Weather by CustomWeather, © 2014

Note: Actual official high and low records may vary slightly from our data, if they occured in-between our weather recording intervals... More about our weather records

Advertising

Winamac weather history for previous 24 hours

 ConditionsComfort  
Time TempWeatherWind HumidityBarometerVisibility
8:53 AM
Sep 23
50 °FSunny.3 mph86%30.35 "Hg10 mi
7:53 AM43 °FSunny.No wind97%30.35 "Hg10 mi
6:53 AM44 °FFog.No wind96%30.33 "Hg6 mi
6:00 AM43 °FFog.No wind93%30.31 "Hg6 mi
4:53 AM43 °FClear.No wind97%30.30 "Hg9 mi
3:53 AM45 °FFog.No wind93%30.30 "Hg3 mi
2:53 AM47 °FClear.No wind93%30.30 "Hg10 mi
1:53 AM47 °FClear.No wind90%30.29 "Hg10 mi
12:53 AM46 °FClear.No wind86%30.30 "Hg10 mi
11:53 PM
Sep 22
47 °FClear.No wind90%30.29 "Hg10 mi
10:53 PM48 °FClear.No wind86%30.29 "Hg10 mi
9:53 PM49 °FClear.No wind84%30.27 "Hg10 mi
8:53 PM51 °FClear.No wind77%30.27 "Hg10 mi
7:53 PM54 °FClear.No wind72%30.26 "Hg10 mi
6:53 PM59 °FSunny.3 mph60%30.25 "Hg10 mi
5:53 PM62 °FSunny.8 mph46%30.26 "Hg10 mi
4:53 PM62 °FSunny.8 mph52%30.26 "Hg10 mi
3:53 PM63 °FSunny.6 mph50%30.27 "Hg10 mi
2:53 PM63 °FSunny.6 mph50%30.27 "Hg10 mi
1:53 PM62 °FSunny.8 mph52%30.28 "Hg10 mi
12:53 PM60 °FSunny.8 mph58%30.29 "Hg10 mi
11:53 AM59 °FPassing clouds.10 mph58%30.29 "Hg10 mi
10:53 AM54 °FSunny.No wind69%30.29 "Hg10 mi
Weather by CustomWeather, © 2014

See weather overviewHow to use our weather pages